TimeEDT,TemperatureF,Dew PointF,Humidity,Sea Level PressureIn,VisibilityMPH,Wind Direction,Wind SpeedMPH,Gust SpeedMPH,PrecipitationIn,Events,Conditions,WindDirDegrees,DateUTC
12:53 AM,57.0,54.0,89,29.96,10.0,Calm,Calm,-,N/A,,Overcast,0,2012-09-21 04:53:00
1:53 AM,59.0,55.0,87,29.95,10.0,SE,3.5,-,N/A,,Overcast,140,2012-09-21 05:53:00
2:53 AM,62.1,52.0,70,29.96,10.0,Calm,Calm,-,N/A,,Overcast,0,2012-09-21 06:53:00
3:53 AM,61.0,52.0,72,29.95,10.0,South,3.5,-,N/A,,Overcast,190,2012-09-21 07:53:00
4:53 AM,61.0,51.1,70,29.95,10.0,Calm,Calm,-,N/A,,Mostly Cloudy,0,2012-09-21 08:53:00
5:53 AM,60.1,52.0,75,29.97,10.0,SSW,3.5,-,N/A,,Overcast,200,2012-09-21 09:53:00
6:53 AM,55.0,50.0,83,29.97,10.0,SSE,3.5,-,N/A,,Clear,160,2012-09-21 10:53:00
7:53 AM,53.1,50.0,89,30.00,10.0,Calm,Calm,-,N/A,,Clear,0,2012-09-21 11:53:00
8:53 AM,61.0,54.0,78,30.01,10.0,WSW,6.9,-,N/A,,Clear,240,2012-09-21 12:53:00
9:53 AM,64.0,52.0,65,30.01,10.0,SW,4.6,-,N/A,,Clear,220,2012-09-21 13:53:00
10:53 AM,66.9,50.0,54,30.00,10.0,Calm,Calm,-,N/A,,Clear,0,2012-09-21 14:53:00
11:53 AM,69.1,46.9,45,30.00,10.0,SW,10.4,-,N/A,,Clear,220,2012-09-21 15:53:00
12:53 PM,68.0,48.0,49,29.99,10.0,SSW,6.9,-,N/A,,Clear,210,2012-09-21 16:53:00
1:53 PM,69.1,46.0,44,29.98,10.0,West,8.1,-,N/A,,Clear,260,2012-09-21 17:53:00
2:53 PM,70.0,45.0,41,29.96,10.0,West,6.9,-,N/A,,Clear,260,2012-09-21 18:53:00
3:53 PM,70.0,48.0,46,29.94,10.0,SW,8.1,-,N/A,,Clear,220,2012-09-21 19:53:00
4:53 PM,69.1,45.0,42,29.92,10.0,South,9.2,-,N/A,,Mostly Cloudy,190,2012-09-21 20:53:00
5:53 PM,66.9,50.0,54,29.90,10.0,Calm,Calm,-,N/A,,Overcast,0,2012-09-21 21:53:00
6:53 PM,62.1,53.1,72,29.89,10.0,ESE,5.8,-,N/A,,Overcast,110,2012-09-21 22:53:00
7:53 PM,61.0,51.1,70,29.84,10.0,ESE,4.6,-,N/A,,Overcast,120,2012-09-21 23:53:00
8:53 PM,64.9,50.0,58,29.80,10.0,SSE,8.1,-,N/A,,Overcast,150,2012-09-22 00:53:00
9:53 PM,66.0,53.1,63,29.74,10.0,SSE,12.7,-,N/A,,Overcast,150,2012-09-22 01:53:00
10:53 PM,69.1,54.0,58,29.73,10.0,South,15.0,26.5,N/A,,Overcast,180,2012-09-22 02:53:00
11:53 PM,61.0,52.0,72,29.74,10.0,NNW,4.6,-,N/A,,Overcast,330,2012-09-22 03:53:00